SCP
0 0 0 0 0 0 0 0 0 0 0 0 0 0 0 0 0 0 0 0 0 0 0 0 0 0 0 0 0 0 -0 0 -0 0 0 -0 0 0 -0 -0 0 0 0 0
0 0 0 0 0 0 0 0 0 0 0 0 0 0 0 0 0 0 0 0 0 0 0 0 0 0 0 0 0 0 0 0 0 0 0 0 0 -0 0 0 0 0 -0 0
0 0 0 0 0 0 0 0 0 0 0 0 0 0 0 0 0 0 0 0 0 0 0 0 0 0 0 0 0 0 0 0 0 0 0 0 0 -0 -0 0 0 0 0 0
0 0 0 0 0 0 0 0 0 0 0 0 0 0 0 0 0 0 0 0 0 0 0 0 0 0 0 0 0 0 0 0 0 0 -0 -0 0 0 0 0 0 -0 0 0
0 0 0 0 0 0 0 0 0 0 0 0 0 0 0 0 0 0 0 0 0 0 0 0 0 0 0 0 0 0 0 0 0 -0 -0 0 0 0 0 0 0 0 0 0
0 0 0 0 0 0 0 0 0 0 0 0 0 0 0 0 0 0 0 0 0 0 0 0 0 0 0 0 0 0 0 0 0 0 0 0 0 0 0 0 0 0 0 0
0 0 0 0 0 0 0 0 0 0 0 0 0 0 0 0 0 0 0 0 0 0 0 0 0 0 0 0 0 0 0 0 0 0 0 0 0 0 0 0 0 0 0 0
0 0 0 0 0 0 0 0 0 0 0 0 0 0 0 0 0 0 0 0 0 0 0 0 0 0 0 0 0 0 0 0 0 0 0 0 0 0 0 0 0 0 0 0
0 0 0 0 0 0 0 0 0 0 0 0 0 0 0 0 0 0 0 0 0 0 0 0 0 0 0 0 0 0 0 0 0 0 0 0 0 0 0 0 0 0 0 0
0 0 0 0 0 0 0 0 0 0 0 0 0 0 0 0 0 0 0 0 0 0 0 0 0 0 0 0 0 0 0 0 0 0 0 0 0 0 0 0 0 0 0 0
0 0 0 0 0 0 0 0 0 0 0 0 0 0 0 0 0 0 0 0 0 0 0 0 0 0 0 0 0 0 0 0 0 0 0 0 0 0 0 0 0 0 0 0
0 0 0 0 0 0 0 0 0 0 0 0 0 0 0 0 0 0 0 0 0 0 0 0 0 0 0 0 0 1 0 0 0 1 1 1 0 0 1 0 0 0 0 0
0 0 0 0 0 0 0 0 0 0 0 0 0 0 0 0 0 0 0 0 0 0 0 0 0 0 0 0 0 0 1 1 1 1 1 0 1 1 1 0 0 0 0 1
0 0 0 0 0 0 0 0 0 0 0 0 0 0 0 0 0 0 0 0 0 0 0 1 0 0 0 0 0 0 0 0 1 1 1 1 0 1 1 1 0 1 1 0
0 0 0 0 0 0 0 0 0 0 0 0 0 0 0 0 0 0 0 0 0 0 0 1 0 0 0 0 0 0 0 0 1 1 0 1 1 1 0 0 0 0 0 0
0 0 0 0 0 0 0 0 0 0 0 0 0 0 0 0 0 0 0 0 0 0 1 0 0 0 0 0 0 0 0 0 0 1 0 1 0 0 0 0 0 0 0 0
0 0 0 0 0 0 0 0 0 0 0 0 0 0 0 0 0 0 0 0 0 0 0 0 0 0 0 0 0 0 0 0 0 0 0 0 0 0 0 0 0 0 0 0
0 0 0 0 0 0 0 0 0 0 0 0 0 0 0 0 0 0 0 0 0 0 0 0 0 0 0 1 0 0 0 0 0 0 0 0 0 0 0 0 0 0 0 0
0 0 0 0 0 0 0 0 0 0 0 0 0 0 0 0 0 0 0 0 0 0 0 0 0 0 1 1 0 0 0 0 0 0 0 0 0 0 0 0 0 0 0 0
0 0 0 0 0 -0 0 0 0 0 0 0 0 0 0 0 0 0 0 0 0 0 0 0 0 0 1 0 0 0 0 0 0 0 0 0 0 0 0 0 0 0 0 0
0 0 0 0 0 0 0 0 0 0 0 0 0 0 0 0 0 0 0 0 0 0 0 0 0 0 0 0 1 0 0 0 0 0 0 0 0 0 0 0 0 0 0 0
0 0 0 0 0 0 0 0 0 0 0 0 0 0 0 0 1 0 0 0 0 0 0 0 0 0 0 0 0 0 0 0 0 0 0 0 0 0 0 0 0 0 0 0
0 0 0 0 0 0 0 0 0 0 0 0 0 0 0 0 0 0 0 0 0 0 0 0 0 0 0 0 0 0 0 0 0 0 0 0 0 0 0 0 0 0 0 0
0 0 0 0 0 0 0 0 0 0 0 0 0 0 0 0 0 0 0 0 0 0 0 0 0 0 0 0 0 0 0 0 0 0 0 0 0 0 0 0 0 0 0 0
0 0 0 0 0 0 0 0 0 0 0 0 0 0 0 0 0 0 0 0 0 0 0 1 0 0 0 0 0 0 0 0 0 0 0 0 0 0 0 0 0 0 0 0
0 0 0 0 0 0 0 0 0 0 0 0 0 0 0 0 0 0 0 0 0 0 0 0 0 0 0 0 0 0 0 0 0 0 0 0 0 0 0 0 0 0 0 0
0 0 0 0 0 0 0 0 0 0 0 0 0 0 0 0 0 0 0 0 0 0 0 0 0 0 0 0 0 0 0 0 0 0 0 0 0 0 0 0 0 0 0 0
Wind_Speed_500mb
34 37 34 39 40 29 11 20 17 20 29 32 41 38 57 60 62 54 35 33 36 33 42 48 51 46 47 44 52 51 44 20 26 41 35 40 38 38 32 20 17 16 16 22
31 29 30 32 35 28 23 17 35 17 32 22 36 43 53 61 52 53 43 45 31 31 28 37 47 50 48 40 43 46 37 32 28 32 19 21 27 27 37 30 19 11 15 14
26 27 25 31 29 22 15 14 11 37 38 50 46 43 52 56 70 53 51 45 46 37 30 33 32 43 38 52 34 48 50 34 37 32 30 32 38 41 36 26 18 23 26 24
24 23 26 28 26 18 14 19 19 16 18 36 43 42 44 52 55 62 49 46 50 44 31 38 37 33 38 26 24 28 36 43 40 42 35 40 40 41 32 33 28 28 5 13
28 26 27 28 21 19 16 18 14 24 39 32 32 41 49 51 50 49 43 47 52 44 38 35 31 39 34 36 34 33 42 30 39 43 45 20 23 42 39 37 31 27 31 17
29 28 25 22 17 11 13 24 27 25 26 29 25 32 46 49 37 59 64 51 40 45 45 39 37 49 34 31 35 37 38 33 32 41 38 31 36 33 31 28 28 32 25 13
24 21 18 21 15 13 17 21 21 24 25 29 28 37 39 44 48 42 49 51 43 52 29 55 50 21 26 29 45 41 41 33 25 28 33 43 24 38 37 33 29 14 9 16
19 16 16 14 13 14 16 20 22 32 23 36 31 39 23 45 51 25 26 43 38 12 23 24 29 21 23 28 21 33 43 36 32 28 37 18 11 13 25 22 23 16 11 17
14 14 16 16 14 14 16 15 23 24 26 22 23 20 38 26 23 21 40 2 11 16 22 21 36 38 31 32 17 25 28 27 28 27 37 40 30 35 23 13 21 29 21 23
12 13 14 16 14 12 13 21 16 22 31 44 14 12 17 31 32 26 37 28 17 33 24 28 34 37 43 41 44 29 28 27 34 27 33 15 24 31 27 27 6 37 27 19
12 13 13 13 12 11 13 20 18 23 31 44 21 21 21 18 22 20 12 29 22 24 30 32 29 24 41 41 43 42 29 29 29 31 35 20 33 32 24 20 26 26 22 22
12 13 14 12 11 11 13 20 15 17 28 36 27 30 31 27 20 20 12 6 19 21 21 22 25 25 22 40 34 6 35 31 29 5 6 38 43 27 30 25 25 19 20 25
13 13 15 12 12 10 10 16 13 19 31 42 44 33 30 28 30 22 19 8 15 4 13 14 21 20 18 21 27 30 10 4 7 15 16 28 32 25 23 19 20 21 26 33
15 13 14 14 13 12 14 16 12 13 15 14 23 15 15 19 20 22 26 22 19 24 19 19 11 14 1 15 22 19 18 16 17 27 25 31 25 25 30 32 32 34 32 31
16 14 14 14 12 14 18 15 14 15 13 15 18 6 14 16 18 16 16 17 16 20 17 13 16 3 14 18 10 14 15 19 20 18 46 8 39 36 36 41 41 39 39 35
16 14 14 13 12 12 14 9 6 8 9 13 8 10 14 17 17 16 16 15 13 16 22 25 4 6 9 16 13 19 20 18 29 38 33 49 45 43 40 42 41 38 35 31
15 12 11 10 10 10 17 6 2 11 4 11 9 13 15 19 22 18 18 12 10 15 8 10 15 21 13 18 7 29 33 25 43 46 57 50 46 46 41 40 39 37 33 29
9 7 4 7 11 2 5 6 13 12 8 11 8 3 18 25 26 14 11 14 15 7 4 10 12 11 16 6 39 36 35 42 43 43 35 44 45 43 40 38 36 33 29 27
3 1 2 2 5 6 2 6 7 9 9 10 7 6 16 19 25 25 12 11 7 4 8 4 7 9 10 14 36 39 39 39 37 30 45 41 42 40 37 33 28 26 24 21
6 1 6 8 2 5 3 4 11 11 10 8 9 7 6 12 23 14 14 9 6 8 1 4 5 11 15 6 34 34 27 36 38 44 41 39 38 35 32 28 24 22 21 21
6 7 2 3 6 5 7 7 9 9 10 10 4 18 4 5 8 14 7 7 4 7 10 10 11 10 24 18 22 25 31 33 31 29 33 32 32 31 30 25 25 25 21 19
8 8 5 7 6 10 7 5 7 9 6 3 12 4 9 5 7 2 7 6 5 5 4 4 10 14 20 24 24 25 26 27 26 26 27 28 28 27 27 28 25 23 21 19
6 7 5 3 3 3 6 11 4 7 7 7 6 9 11 10 2 5 2 8 4 7 5 5 8 20 21 21 22 23 24 26 26 31 33 32 33 31 29 26 23 22 20 19
6 9 11 4 6 5 6 12 8 8 10 10 8 9 4 2 1 4 7 6 2 6 12 9 17 24 24 25 29 33 34 36 39 40 42 40 38 34 29 26 23 23 23 21
8 8 6 6 4 3 12 16 7 7 6 7 5 12 9 4 6 5 7 6 7 8 5 12 21 27 30 34 36 39 42 42 43 42 42 40 37 32 28 23 22 22 22 20
3 9 10 12 12 13 13 18 18 18 12 3 4 7 3 7 6 4 5 4 6 6 7 15 22 29 33 34 37 37 40 41 41 39 39 36 32 28 26 24 21 20 19 17
1 3 11 21 15 16 22 23 21 22 10 2 7 4 1 7 5 5 7 6 8 7 12 15 24 33 37 34 35 36 38 39 40 40 37 33 30 28 26 24 21 18 16 13
Wind_Direction_500mb
292 302 310 317 318 320 345 271 237 188 184 204 221 223 224 235 228 239 230 268 265 241 221 216 213 215 219 199 217 202 225 208 239 188 211 228 216 207 228 246 188 257 310 109
287 296 300 311 319 333 329 259 246 211 197 224 229 219 229 231 238 233 206 234 242 259 254 236 218 227 220 187 219 207 205 234 218 221 170 215 225 235 222 223 263 208 240 122
287 290 294 307 312 317 328 271 240 215 217 240 260 234 217 223 230 240 232 230 235 232 243 245 238 215 213 208 209 220 205 214 238 218 202 202 210 234 235 219 205 233 213 148
289 287 298 300 303 310 315 237 244 280 216 222 236 254 236 222 217 228 236 236 229 227 224 232 219 231 202 193 171 200 208 223 224 249 244 207 193 218 208 228 239 256 322 237
285 287 287 288 295 305 259 284 278 299 251 296 246 226 245 220 221 212 215 236 220 232 221 238 209 233 198 190 184 218 207 217 230 238 242 233 248 190 209 213 233 241 256 266
289 285 273 269 278 298 259 261 282 273 275 238 251 235 223 245 228 224 229 222 233 218 229 229 244 220 247 183 195 212 209 219 214 233 229 237 234 243 234 230 221 242 247 250
300 285 256 265 255 266 266 268 290 274 258 253 239 236 238 227 232 242 221 222 217 235 252 227 247 247 254 216 203 200 213 220 225 229 230 229 240 235 236 237 239 216 205 93
293 272 249 269 265 275 278 263 263 269 270 260 244 248 256 229 228 242 244 253 207 268 232 208 214 218 227 218 210 210 202 204 220 224 236 219 157 237 241 209 218 181 174 126
290 265 263 272 272 277 295 251 257 255 281 245 339 303 223 247 213 197 229 126 143 235 233 206 202 209 200 200 191 227 222 209 226 206 243 226 214 181 190 194 221 177 171 167
287 263 279 257 264 278 294 269 258 251 259 268 304 247 305 236 251 222 198 192 202 217 225 229 213 214 206 207 195 184 216 211 222 222 217 216 109 133 152 189 160 152 174 171
284 263 290 265 265 280 300 282 247 241 268 276 283 276 287 286 252 257 107 180 208 199 222 224 225 225 214 218 208 185 202 201 220 232 234 200 160 155 180 108 125 140 163 168
287 266 282 278 264 280 310 279 264 253 254 261 288 263 257 258 278 325 296 294 224 219 211 227 234 237 223 214 207 154 210 209 226 319 208 122 148 125 119 134 136 148 155 149
292 270 273 287 275 277 289 288 287 277 266 281 249 252 242 239 243 242 269 184 345 263 328 300 232 253 188 211 220 169 177 309 200 158 124 124 127 120 126 127 132 141 149 153
292 282 271 284 284 290 298 273 280 268 282 279 180 214 228 216 215 228 236 264 302 290 278 270 253 233 239 214 221 202 179 162 139 101 123 122 123 127 131 129 131 135 142 148
296 289 272 281 285 289 303 274 271 247 268 319 324 241 206 205 206 217 225 237 262 259 218 239 239 22 182 240 186 159 173 170 176 191 160 116 135 131 132 129 131 132 132 130
297 286 274 279 281 311 299 223 243 202 231 286 255 109 173 189 195 200 202 214 227 241 242 220 247 15 287 204 190 91 110 140 118 116 138 131 134 134 135 134 137 136 134 132
288 280 281 281 284 296 291 312 275 209 278 255 262 166 166 172 167 172 184 193 214 255 209 243 192 199 233 226 172 136 126 132 117 124 127 129 138 134 137 135 132 131 128 121
298 297 286 275 299 253 267 268 278 211 246 258 277 69 153 182 170 159 170 191 192 221 348 198 213 165 227 86 119 129 130 127 126 128 131 136 137 138 139 138 135 130 125 121
346 73 1 54 231 251 227 264 186 195 240 293 290 272 127 187 185 130 168 178 224 121 224 60 294 165 50 124 133 132 142 136 129 132 130 135 144 145 147 145 141 134 133 127
86 150 235 290 57 178 245 249 197 212 193 255 262 277 140 244 155 156 145 165 198 163 284 69 351 42 84 184 131 145 145 137 133 133 139 145 146 152 154 153 154 148 145 137
310 281 317 111 218 261 221 256 229 170 211 187 306 311 182 36 271 128 352 150 207 201 140 184 169 174 136 144 137 145 147 147 142 141 149 155 160 161 156 150 150 149 144 139
299 303 288 255 239 232 254 187 174 247 66 94 341 183 43 77 12 95 228 146 239 120 175 242 177 128 147 148 153 158 150 147 147 156 161 160 159 159 155 155 146 143 141 135
310 295 278 279 208 323 241 172 166 73 20 22 328 211 163 166 168 57 227 192 147 94 138 212 59 120 134 144 159 169 166 159 160 152 146 148 140 146 151 145 142 140 136 134
332 339 327 331 318 29 4 39 36 86 4 341 333 262 104 101 72 324 78 61 85 206 174 192 126 130 138 153 152 155 151 146 140 140 139 140 140 139 137 137 139 140 138 138
347 316 307 17 55 294 41 35 30 44 350 351 223 271 136 244 138 236 110 188 210 223 81 89 118 141 151 152 151 144 141 142 141 143 143 141 138 134 130 133 137 141 141 144
333 337 349 2 30 28 34 25 31 14 339 275 245 244 193 213 140 196 201 227 70 56 80 121 140 152 155 151 148 149 149 148 147 146 144 140 136 134 132 135 141 145 149 153
261 286 17 29 14 360 15 26 11 351 349 49 326 1 118 287 226 109 36 64 72 73 126 140 149 157 153 151 150 145 146 149 145 147 144 139 137 135 136 141 146 150 152 154
Wind_Speed_850mb
34 37 34 39 40 29 11 20 17 20 29 32 41 38 57 60 62 54 35 33 36 33 42 48 51 46 47 44 52 51 44 20 26 41 35 40 38 38 32 20 17 16 16 22
31 29 30 32 35 28 23 17 35 17 32 22 36 43 53 61 52 53 43 45 31 31 28 37 47 50 48 40 43 46 37 32 28 32 19 21 27 27 37 30 19 11 15 14
26 27 25 31 29 22 15 14 11 37 38 50 46 43 52 56 70 53 51 45 46 37 30 33 32 43 38 52 34 48 50 34 37 32 30 32 38 41 36 26 18 23 26 24
24 23 26 28 26 18 14 19 19 16 18 36 43 42 44 52 55 62 49 46 50 44 31 38 37 33 38 26 24 28 36 43 40 42 35 40 40 41 32 33 28 28 5 13
28 26 27 28 21 19 16 18 14 24 39 32 32 41 49 51 50 49 43 47 52 44 38 35 31 39 34 36 34 33 42 30 39 43 45 20 23 42 39 37 31 27 31 17
29 28 25 22 17 11 13 24 27 25 26 29 25 32 46 49 37 59 64 51 40 45 45 39 37 49 34 31 35 37 38 33 32 41 38 31 36 33 31 28 28 32 25 13
24 21 18 21 15 13 17 21 21 24 25 29 28 37 39 44 48 42 49 51 43 52 29 55 50 21 26 29 45 41 41 33 25 28 33 43 24 38 37 33 29 14 9 16
19 16 16 14 13 14 16 20 22 32 23 36 31 39 23 45 51 25 26 43 38 12 23 24 29 21 23 28 21 33 43 36 32 28 37 18 11 13 25 22 23 16 11 17
14 14 16 16 14 14 16 15 23 24 26 22 23 20 38 26 23 21 40 2 11 16 22 21 36 38 31 32 17 25 28 27 28 27 37 40 30 35 23 13 21 29 21 23
12 13 14 16 14 12 13 21 16 22 31 44 14 12 17 31 32 26 37 28 17 33 24 28 34 37 43 41 44 29 28 27 34 27 33 15 24 31 27 27 6 37 27 19
12 13 13 13 12 11 13 20 18 23 31 44 21 21 21 18 22 20 12 29 22 24 30 32 29 24 41 41 43 42 29 29 29 31 35 20 33 32 24 20 26 26 22 22
12 13 14 12 11 11 13 20 15 17 28 36 27 30 31 27 20 20 12 6 19 21 21 22 25 25 22 40 34 6 35 31 29 5 6 38 43 27 30 25 25 19 20 25
13 13 15 12 12 10 10 16 13 19 31 42 44 33 30 28 30 22 19 8 15 4 13 14 21 20 18 21 27 30 10 4 7 15 16 28 32 25 23 19 20 21 26 33
15 13 14 14 13 12 14 16 12 13 15 14 23 15 15 19 20 22 26 22 19 24 19 19 11 14 1 15 22 19 18 16 17 27 25 31 25 25 30 32 32 34 32 31
16 14 14 14 12 14 18 15 14 15 13 15 18 6 14 16 18 16 16 17 16 20 17 13 16 3 14 18 10 14 15 19 20 18 46 8 39 36 36 41 41 39 39 35
16 14 14 13 12 12 14 9 6 8 9 13 8 10 14 17 17 16 16 15 13 16 22 25 4 6 9 16 13 19 20 18 29 38 33 49 45 43 40 42 41 38 35 31
15 12 11 10 10 10 17 6 2 11 4 11 9 13 15 19 22 18 18 12 10 15 8 10 15 21 13 18 7 29 33 25 43 46 57 50 46 46 41 40 39 37 33 29
9 7 4 7 11 2 5 6 13 12 8 11 8 3 18 25 26 14 11 14 15 7 4 10 12 11 16 6 39 36 35 42 43 43 35 44 45 43 40 38 36 33 29 27
3 1 2 2 5 6 2 6 7 9 9 10 7 6 16 19 25 25 12 11 7 4 8 4 7 9 10 14 36 39 39 39 37 30 45 41 42 40 37 33 28 26 24 21
6 1 6 8 2 5 3 4 11 11 10 8 9 7 6 12 23 14 14 9 6 8 1 4 5 11 15 6 34 34 27 36 38 44 41 39 38 35 32 28 24 22 21 21
6 7 2 3 6 5 7 7 9 9 10 10 4 18 4 5 8 14 7 7 4 7 10 10 11 10 24 18 22 25 31 33 31 29 33 32 32 31 30 25 25 25 21 19
8 8 5 7 6 10 7 5 7 9 6 3 12 4 9 5 7 2 7 6 5 5 4 4 10 14 20 24 24 25 26 27 26 26 27 28 28 27 27 28 25 23 21 19
6 7 5 3 3 3 6 11 4 7 7 7 6 9 11 10 2 5 2 8 4 7 5 5 8 20 21 21 22 23 24 26 26 31 33 32 33 31 29 26 23 22 20 19
6 9 11 4 6 5 6 12 8 8 10 10 8 9 4 2 1 4 7 6 2 6 12 9 17 24 24 25 29 33 34 36 39 40 42 40 38 34 29 26 23 23 23 21
8 8 6 6 4 3 12 16 7 7 6 7 5 12 9 4 6 5 7 6 7 8 5 12 21 27 30 34 36 39 42 42 43 42 42 40 37 32 28 23 22 22 22 20
3 9 10 12 12 13 13 18 18 18 12 3 4 7 3 7 6 4 5 4 6 6 7 15 22 29 33 34 37 37 40 41 41 39 39 36 32 28 26 24 21 20 19 17
1 3 11 21 15 16 22 23 21 22 10 2 7 4 1 7 5 5 7 6 8 7 12 15 24 33 37 34 35 36 38 39 40 40 37 33 30 28 26 24 21 18 16 13
Wind_Direction_850mb
292 302 310 317 318 320 345 271 237 188 184 204 221 223 224 235 228 239 230 268 265 241 221 216 213 215 219 199 217 202 225 208 239 188 211 228 216 207 228 246 188 257 310 109
287 296 300 311 319 333 329 259 246 211 197 224 229 219 229 231 238 233 206 234 242 259 254 236 218 227 220 187 219 207 205 234 218 221 170 215 225 235 222 223 263 208 240 122
287 290 294 307 312 317 328 271 240 215 217 240 260 234 217 223 230 240 232 230 235 232 243 245 238 215 213 208 209 220 205 214 238 218 202 202 210 234 235 219 205 233 213 148
289 287 298 300 303 310 315 237 244 280 216 222 236 254 236 222 217 228 236 236 229 227 224 232 219 231 202 193 171 200 208 223 224 249 244 207 193 218 208 228 239 256 322 237
285 287 287 288 295 305 259 284 278 299 251 296 246 226 245 220 221 212 215 236 220 232 221 238 209 233 198 190 184 218 207 217 230 238 242 233 248 190 209 213 233 241 256 266
289 285 273 269 278 298 259 261 282 273 275 238 251 235 223 245 228 224 229 222 233 218 229 229 244 220 247 183 195 212 209 219 214 233 229 237 234 243 234 230 221 242 247 250
300 285 256 265 255 266 266 268 290 274 258 253 239 236 238 227 232 242 221 222 217 235 252 227 247 247 254 216 203 200 213 220 225 229 230 229 240 235 236 237 239 216 205 93
293 272 249 269 265 275 278 263 263 269 270 260 244 248 256 229 228 242 244 253 207 268 232 208 214 218 227 218 210 210 202 204 220 224 236 219 157 237 241 209 218 181 174 126
290 265 263 272 272 277 295 251 257 255 281 245 339 303 223 247 213 197 229 126 143 235 233 206 202 209 200 200 191 227 222 209 226 206 243 226 214 181 190 194 221 177 171 167
287 263 279 257 264 278 294 269 258 251 259 268 304 247 305 236 251 222 198 192 202 217 225 229 213 214 206 207 195 184 216 211 222 222 217 216 109 133 152 189 160 152 174 171
284 263 290 265 265 280 300 282 247 241 268 276 283 276 287 286 252 257 107 180 208 199 222 224 225 225 214 218 208 185 202 201 220 232 234 200 160 155 180 108 125 140 163 168
287 266 282 278 264 280 310 279 264 253 254 261 288 263 257 258 278 325 296 294 224 219 211 227 234 237 223 214 207 154 210 209 226 319 208 122 148 125 119 134 136 148 155 149
292 270 273 287 275 277 289 288 287 277 266 281 249 252 242 239 243 242 269 184 345 263 328 300 232 253 188 211 220 169 177 309 200 158 124 124 127 120 126 127 132 141 149 153
292 282 271 284 284 290 298 273 280 268 282 279 180 214 228 216 215 228 236 264 302 290 278 270 253 233 239 214 221 202 179 162 139 101 123 122 123 127 131 129 131 135 142 148
296 289 272 281 285 289 303 274 271 247 268 319 324 241 206 205 206 217 225 237 262 259 218 239 239 22 182 240 186 159 173 170 176 191 160 116 135 131 132 129 131 132 132 130
297 286 274 279 281 311 299 223 243 202 231 286 255 109 173 189 195 200 202 214 227 241 242 220 247 15 287 204 190 91 110 140 118 116 138 131 134 134 135 134 137 136 134 132
288 280 281 281 284 296 291 312 275 209 278 255 262 166 166 172 167 172 184 193 214 255 209 243 192 199 233 226 172 136 126 132 117 124 127 129 138 134 137 135 132 131 128 121
298 297 286 275 299 253 267 268 278 211 246 258 277 69 153 182 170 159 170 191 192 221 348 198 213 165 227 86 119 129 130 127 126 128 131 136 137 138 139 138 135 130 125 121
346 73 1 54 231 251 227 264 186 195 240 293 290 272 127 187 185 130 168 178 224 121 224 60 294 165 50 124 133 132 142 136 129 132 130 135 144 145 147 145 141 134 133 127
86 150 235 290 57 178 245 249 197 212 193 255 262 277 140 244 155 156 145 165 198 163 284 69 351 42 84 184 131 145 145 137 133 133 139 145 146 152 154 153 154 148 145 137
310 281 317 111 218 261 221 256 229 170 211 187 306 311 182 36 271 128 352 150 207 201 140 184 169 174 136 144 137 145 147 147 142 141 149 155 160 161 156 150 150 149 144 139
299 303 288 255 239 232 254 187 174 247 66 94 341 183 43 77 12 95 228 146 239 120 175 242 177 128 147 148 153 158 150 147 147 156 161 160 159 159 155 155 146 143 141 135
310 295 278 279 208 323 241 172 166 73 20 22 328 211 163 166 168 57 227 192 147 94 138 212 59 120 134 144 159 169 166 159 160 152 146 148 140 146 151 145 142 140 136 134
332 339 327 331 318 29 4 39 36 86 4 341 333 262 104 101 72 324 78 61 85 206 174 192 126 130 138 153 152 155 151 146 140 140 139 140 140 139 137 137 139 140 138 138
347 316 307 17 55 294 41 35 30 44 350 351 223 271 136 244 138 236 110 188 210 223 81 89 118 141 151 152 151 144 141 142 141 143 143 141 138 134 130 133 137 141 141 144
333 337 349 2 30 28 34 25 31 14 339 275 245 244 193 213 140 196 201 227 70 56 80 121 140 152 155 151 148 149 149 148 147 146 144 140 136 134 132 135 141 145 149 153
261 286 17 29 14 360 15 26 11 351 349 49 326 1 118 287 226 109 36 64 72 73 126 140 149 157 153 151 150 145 146 149 145 147 144 139 137 135 136 141 146 150 152 154